Hourly Data Report for June 12, 2006

TORONTO CITY
ONTARIO

43°40'00.000" N
79°24'00.000" W
112.50 m
6158355
71508
XTO

Download Data

Hourly Data (June 2006)
Hourly Data Report for June 12, 2006
TIME
LST
Temp Definition
°C
Dew Point Definition
°C
Rel Hum Definition
%
Precip. Amount Definition
mm

Wind Dir Definition
10's deg

Wind Spd Definition
km/h
Visibility Definition
km
Stn Press Definition
kPa
Hmdx Definition


Wind Chill Definition


Weather Definition


00:00 12.9 9.4 79   LegendMM LegendMM   100.06     LegendNANA
01:00 12.9 9.8 81   LegendMM LegendMM   100.12     LegendNANA
02:00 13.0 10.1 83   LegendMM LegendMM   100.14     LegendNANA
03:00 12.9 10.1 83   LegendMM LegendMM   100.12     LegendNANA
04:00 13.0 9.9 81   LegendMM LegendMM   100.15     LegendNANA
05:00 13.1 9.9 81   LegendMM LegendMM   100.17     LegendNANA
06:00 13.6 10.1 79   LegendMM LegendMM   100.21     LegendNANA
07:00 14.3 10.1 76   LegendMM LegendMM   100.24     LegendNANA
08:00 15.1 10.2 73   LegendMM LegendMM   100.27     LegendNANA
09:00 16.3 10.8 70   LegendMM LegendMM   100.28     LegendNANA
10:00 17.5 11.4 67   LegendMM LegendMM   100.26     LegendNANA
11:00 18.3 11.5 65   LegendMM LegendMM   100.28     LegendNANA
12:00 19.0 12.4 66   LegendMM LegendMM   100.30     LegendNANA
13:00 19.7 12.6 64   LegendMM LegendMM   100.30     LegendNANA
14:00 19.8 12.3 62   LegendMM LegendMM   100.27     LegendNANA
15:00 19.2 11.3 60   LegendMM LegendMM   100.28     LegendNANA
16:00 18.8 11.4 62   LegendMM LegendMM   100.30     LegendNANA
17:00 18.3 11.2 63   LegendMM LegendMM   100.32     LegendNANA
18:00 17.3 10.8 66   LegendMM LegendMM   100.36     LegendNANA
19:00 16.2 10.5 69   LegendMM LegendMM   100.36     LegendNANA
20:00 15.5 10.5 72   LegendMM LegendMM   100.39     LegendNANA
21:00 15.1 10.4 73   LegendMM LegendMM   100.43     LegendNANA
22:00 14.8 10.3 74   LegendMM LegendMM   100.44     LegendNANA
23:00 14.3 10.2 76   LegendMM LegendMM   100.44     LegendNANA

Notes on Data Quality.

Legend

  • E = Estimated
  • M = Missing
  • NA = Not Available*
  • [empty] = Indicates an unobserved value
Date modified: